Regional Weather Roundup
Issued by NWS

Home | Current Version | Previous Version | Graphics & Text | Print | Product List | Glossary On
Versions: 1 2 3 4 5 6 7 8 9 10 11 12 13 14 15 16 17 18 19 20 21 22 23 24 25 26 27 28 29 30 31 32 33 34 35 36 37 38 39 40 41 42 43 44 45 46 47 48 49 50
000
ASUS43 KDMX 232107
RWRIA

WEATHER ROUNDUP FOR IOWA
NATIONAL WEATHER SERVICE DES MOINES IA
400 PM CDT SAT MAY 23 2015

NOTE: "FAIR" INDICATES FEW OR NO CLOUDS BELOW 12,000 FEET WITH NO
SIGNIFICANT WEATHER AND/OR OBSTRUCTIONS TO VISIBILITY.

* - THESE STATIONS ARE NOT NWS STATIONS...THUS NOT UNDER NWS
QUALITY CONTROL.  THEY ALSO DO NOT REPORT WEATHER SUCH
AS PRECIPITATION OR FOG.

IAZ001>003-012>014-020>022-031>034-043>046-232200-
   NORTHWEST IOWA

CITY           SKY/WX    TMP DP  RH WIND       PRES   REMARKS
CARROLL *      CLOUDY    68  54  60 S16       30.13F
CHEROKEE *     CLOUDY    68  54  60 S10G17    30.12F
DENISON *      CLOUDY    66  55  68 S12       30.11F
LE MARS *      CLOUDY    66  54  63 S10       30.13F
ORANGE CITY *  MOSUNNY   64  52  63 S6        30.12F
SHELDON *      CLOUDY    68  50  52 SE20      30.12S
SIOUX CITY     CLOUDY    65  53  65 S9        30.12F
SPENCER        CLOUDY    69  48  47 SE16      30.14S
STORM LAKE *   CLOUDY    70  48  46 SE15G22   30.13F
$$

IAZ055>058-069>071-079>083-090>094-232200-
   SOUTHWEST IOWA

CITY           SKY/WX    TMP DP  RH WIND       PRES   REMARKS
ATLANTIC *     CLOUDY    66  55  68 SE13      30.13F
AUDUBON *      PTSUNNY   66  55  68 S12G18    30.14F
CLARINDA *     CLOUDY    68  57  68 SE13      30.14F
COUNCIL BLFS * CLOUDY    64  61  88 S9        30.13S
CRESTON *      CLOUDY    68  55  64 S16G24    30.14F
HARLAN  *      CLOUDY    66  61  82 S10       30.16F
LAMONI         PTSUNNY   72  56  57 SE10G20   30.14F
RED OAK *      CLOUDY    66  59  77 SE12      30.12F
SHENANDOAH *   CLOUDY    68  59  73 SE10G18   30.13S
$$

IAZ047>049-059>061-072>074-084-232200-
   CENTRAL IOWA

CITY           SKY/WX    TMP DP  RH WIND       PRES   REMARKS
AMES           PTSUNNY   73  51  46 SE15G23   30.14F
ANKENY *       PTSUNNY   72  50  46 SE14G21   30.14F
CHARITON *     PTSUNNY   73  54  49 S17       30.15F
DES MOINES     CLOUDY    73  52  47 S15G22    30.14F
GRINNELL*      PTSUNNY   73  43  33 SE14      30.17F
KNOXVILLE *    PTSUNNY   75  50  41 S17       30.14F
MARSHALLTOWN   PTSUNNY   73  47  39 SE15      30.16F
PELLA *        PTSUNNY   75  55  50 S14       30.16F
PERRY *        CLOUDY    70  50  49 S18       30.13F
$$

IAZ004>006-015-016-023>025-035-036-232200-
   NORTH CENTRAL IOWA

CITY           SKY/WX    TMP DP  RH WIND       PRES   REMARKS
ALGONA *       CLOUDY    68  50  52 S14G22    30.17R
CLARION *      CLOUDY    73  43  33 S23       30.15F
ESTHERVILLE    CLOUDY    70  47  43 SE18G29   30.14F
FORT DODGE *   CLOUDY    68  45  42 S12G21    30.16F
MASON CITY     CLOUDY    73  47  39 S12G23    30.18F
FOREST CITY *  CLOUDY    68  46  45 S17       30.16F
IOWA FALLS *     N/A     73  46  38 SE13G23   30.17F
$$

IAZ007>011-017>019-026>030-037>042-050>054-066-232200-
   NORTHEAST IOWA

CITY           SKY/WX    TMP DP  RH WIND       PRES   REMARKS
CEDAR RAPIDS   CLOUDY    74  50  42 S13       30.19F
CHARLES CITY * MOSUNNY   77  45  31 S20       30.18F
CLINTON *      MOSUNNY   79  46  31 S9G20     30.23F
DECORAH *      MOSUNNY   77  41  27 VRB7G16   30.18F
DUBUQUE        PTSUNNY   74  45  35 SW9       30.22F
MONTICELLO *   SUNNY     77  48  36 S13G20    30.20F
OELWEIN *      SUNNY     75  46  35 S15G22    30.20F
WATERLOO       CLOUDY    76  49  38 S13G20    30.17F
$$

IAZ064-065-067-068-078-232200-
   EAST CENTRAL IOWA

CITY           SKY/WX    TMP DP  RH WIND       PRES   REMARKS
DAVENPORT      MOSUNNY   78  45  30 SW12      30.21F
IOWA CITY      CLOUDY    76  52  43 S12       30.21F
MT. PLEASANT * MOSUNNY   79  43  27 SE12G20   30.20F
MUSCATINE *    PTSUNNY   77  52  41 VRB7G16   30.20F
QUAD CITIES    MOSUNNY   79  47  32 SE10G16   30.20F
$$

IAZ062-063-075>077-085>089-095>099-232200-
   SOUTHEAST IOWA

CITY           SKY/WX    TMP DP  RH WIND       PRES   REMARKS
BURLINGTON     MOSUNNY   75  47  36 S13       30.20F
FAIRFIELD *    PTSUNNY   77  45  31 SE16G22   30.18F
FORT MADISON * SUNNY     75  48  38 S8        30.21F
KEOKUK *       SUNNY     75  50  41 SE12      30.19F
OSKALOOSA *    PTSUNNY   79  43  27 S16G23    30.17F
CENTERVILLE *  SUNNY     72  72 100 SE12      30.19F
OTTUMWA        PTSUNNY   76  47  35 S16       30.17F
WASHINGTON *   PTSUNNY  N/A N/A N/A MISG        N/A
$$

ABBREVIATIONS USED IN REMARKS
   TC - TEMPERATURES IN CELSIUS
  WCI - WIND CHILL INDEX
   HX - HEAT INDEX
  VSB - VISIBILITY
$$




USA.gov is the U.S. government's official web portal to all federal, state and local government web resources and services.